Weather Roundup
Issued by NWS

Home | Current Version | Previous Version | Text Only | Print | Product List | Glossary On
Versions: 1 2 3 4 5 6 7 8 9 10 11 12 13 14 15 16 17 18 19 20 21 22 23 24 25 26 27 28 29 30 31 32 33 34 35 36 37 38 39 40 41 42 43 44 45 46 47 48 49 50
000
NZUS93 KARX 250710
HRRWXR

CURRENT HOURLY OBSERVATIONS ACROSS
MUCH OF THE UPPER MISSISSIPPI VALLEY
NATIONAL WEATHER SERVICE LA CROSSE WI
200 AM CDT TUE JUL 25 2017


...SOUTHEAST MINNESOTA...


CITY           SKY/WX    TMP DP  RH WIND       PRES   REMARKS
ROCHESTER      FAIR      60  59  96 SE8       30.10R
ROCHESTER/MAYO FAIR      64  60  88 SE6       30.10R
WINONA         FAIR      63  57  82 SE5       30.09F
AUSTIN         FAIR      63  57  82 S3        30.08S
ALBERT LEA     FAIR      66  61  82 S9        30.08R
DODGE CENTER   FAIR      61  57  88 S5        30.10R
PRESTON        FAIR      61  57  87 SE7       30.11S
OWATONNA       FAIR      64  61  88 SE8       30.07S
FARIBAULT      FAIR      66  61  82 SE10      30.06F
$$

...ELSEWHERE IN MINNESOTA...


CITY           SKY/WX    TMP DP  RH WIND       PRES   REMARKS
MINNEAPOLIS    LGT RAIN  68  60  75 S12       30.05R
INTNL FALLS    FAIR      60  56  86 SE7       29.96F
DULUTH         FAIR      59  56  89 S3        30.07R
RED WING       FAIR      66  57  72 S8        30.08R
REDWOOD FALLS  FAIR      68  62  81 S16       29.97F
MANKATO        FAIR      66  62  87 SE14      30.04F
WORTHINGTON    FAIR      68  62  81 SE7       30.02R
FAIRMONT       FAIR      66  63  90 SE10      30.04R
$$

...SOUTHWEST WISCONSIN...


CITY           SKY/WX    TMP DP  RH WIND       PRES   REMARKS
LA CROSSE      FAIR      64  60  87 SE7       30.10R
PRAIRIE DU CHI FAIR      61  59  94 E6        30.10F
BOSCOBEL       FOG       61  60  97 CALM      30.13S VSB 1/2
LONE ROCK      FAIR      59  58  96 CALM      30.14R FOG
PLATTEVILLE    FAIR      61  61  99 E7        30.14S
FORT MC COY    FAIR      53  52  97 CALM      30.13S
CAMP DOUGLAS   FAIR      55  55 100 S3        30.13S FOG
MAUSTON-NEW LI FAIR      57  56  99 CALM      30.14S
VIROQUA        FAIR      60  60  97 CALM      30.14S
WIS DELLS      FAIR      56  53  88 CALM      30.15R
$$

...ELSEWHERE IN WISCONSIN...


CITY           SKY/WX    TMP DP  RH WIND       PRES   REMARKS
MILWAUKEE      FAIR      62  57  83 CALM      30.14S
MADISON        FAIR      58  53  84 S5        30.15R
GREEN BAY      FAIR      56  56 100 CALM      30.15R
EAU CLAIRE     FAIR      63  59  87 S5        30.09R
BLACK RVR FLS  FAIR      53  53 100 CALM      30.12S FOG
MEDFORD        FAIR      57  54  91 SE5       30.13F
WAUSAU         FAIR      59  52  77 SE3       30.14R
WIS RAPIDS     FAIR      58  54  86 SE6       30.16R
MARSHFIELD     FAIR      59  53  80 S5        30.14R
RICE LAKE      FAIR      61  58  89 SE5       30.09F
$$

...NORTHEAST IOWA...


CITY           SKY/WX    TMP DP  RH WIND       PRES   REMARKS
WATERLOO       FAIR      63  60  90 SE7       30.09R
DUBUQUE        FAIR      63  59  87 SE8       30.13S
DECORAH        FAIR      63  59  88 S6        30.11R
MASON CITY     FAIR      64  61  90 SE10      30.10R
CHARLES CITY   FAIR      63  63 100 SE7       30.11R
OELWEIN          N/A    N/A N/A N/A MISG        N/A
$$

...ELSEWHERE IN IOWA...


CITY           SKY/WX    TMP DP  RH WIND       PRES   REMARKS
DES MOINES     FAIR      70  65  84 SE12      30.07R
IOWA CITY      FAIR      65  61  87 SE3       30.12S
FORT DODGE     FAIR      68  63  83 SE10      30.06S
MARSHALLTOWN   FAIR      66  63  90 SE12      30.09R
CEDAR RAPIDS   FAIR      61  61 100 SE6       30.10S
$$

...NORTHERN ILLINOIS...


CITY           SKY/WX    TMP DP  RH WIND       PRES   REMARKS
CHICAGO-OHARE  FAIR      66  59  78 NE3       30.13S
CHICAGO-MIDWAY FAIR      68  62  81 E6        30.12F
MOLINE         FAIR      63  59  87 E5        30.12R
ROCKFORD       FAIR      62  58  86 CALM      30.15S
PEORIA         FAIR      65  61  87 E5        30.13R
$$

NOTE: "FAIR" INDICATES FEW OR NO CLOUDS BELOW 12,000 FEET WITH NO
SIGNIFICANT WEATHER AND/OR OBSTRUCTIONS TO VISIBILITY. WIND
SPEEDS ARE IN MILES-PER-HOUR.




USA.gov is the U.S. government's official web portal to all federal, state and local government web resources and services.